Regional Weather Roundup
Issued by NWS Newport/Morehead, NC

Current Version | Previous Version | Graphics & Text | Print | Product List | Glossary Off
Versions: 1 2 3 4 5 6 7 8 9 10 11 12 13 14 15 16 17 18 19 20 21 22 23 24 25 26 27 28 29 30 31 32 33 34 35 36 37 38 39 40 41 42 43 44 45 46 47 48 49 50

061
ASUS42 KMHX 160813
RWRMHX
WEATHER ROUNDUP FOR EASTERN NORTH CAROLINA
NATIONAL WEATHER SERVICE NEWPORT/MOREHEAD CITY NC
300 AM EST SAT DEC 16 2017

NOTE: "FAIR" INDICATES FEW OR NO CLOUDS BELOW 12,000 FEET
WITH NO SIGNIFICANT WEATHER AND/OR OBSTRUCTIONS TO VISIBILITY

NCZ015>017-031-032-045>047-102-103-160900-
NORTH COAST

CITY           SKY/WX    TMP DP  RH WIND       PRES   REMARKS
EDENTON        CLEAR     36  25  66 NW6       30.15R
ELIZABETH CITY CLEAR     28  24  85 W7        30.14R
KITTY HAWK     SUNNY     35  27  73 CALM      30.12R
MANTEO         CLEAR     36  28  71 N7        30.13R

$$

NCZ045>047-081-094-103-104-160900-
CENTRAL COAST

CITY           SKY/WX    TMP DP  RH WIND       PRES   REMARKS
FRISCO         CLEAR     40  29  64 NW8G20    30.14R

$$

NCZ095-097-098-100-101-160900-
SOUTHERN COAST

CITY           SKY/WX    TMP DP  RH WIND       PRES   REMARKS
BEAUFORT       CLEAR     38  28  67 N9        30.16R
CEDAR ISLAND   NOT AVBL
JACKSONVILLE   CLEAR     35  28  75 N7        30.17R
PINEY ISLAND   NOT AVBL
WILMINGTON     CLEAR     37  29  72 NW5       30.18R


$$

NCZ011>013-027>030-043-044-078>080-089-090>093-098-160900-
COASTAL PLAIN

CITY           SKY/WX    TMP DP  RH WIND       PRES   REMARKS
AHOSKIE        CLEAR     26  24  92 CALM      30.15R
CLINTON        CLEAR     31  29  94 CALM      30.18R
ELIZABETHTOWN  NOT AVBL
GOLDSBORO      CLEAR     34  22  60 NW5       30.16R
GREENVILLE     CLEAR     32  25  74 CALM      30.18R
HAVELOCK       CLEAR     36  28  73 NW7       30.17R
KENANSVILLE    CLEAR     34  25  69 CALM      30.18R
KINSTON        NOT AVBL
NEW BERN       CLEAR     32  26  78 NW6       30.18R
RICHLANDS      CLEAR     32  27  81 CALM      30.17R
ROCKY MOUNT    CLEAR     32  23  69 CALM      30.17R
WASHINGTON     CLEAR     32  26  77 NW3       30.17R
WHITEVILLE     CLEAR     35  31  83 CALM      30.18R

$$

AMZ130-135-150-152-154-156-158-170-250-252-270-ANZ085-086-088-633-658-670-160900-
MARINE OBSERVATIONS

STATION/POSITION TIME  TEMP    WIND        PRES    WAVE   SWELL
                       AIR SEA DIR/SP/G            HT/PER HT/PER
                 (UTC) (F)     (DEG/KT/KT) (MB)    (FT/S) (FT/S)
CHESAPEAKE LIGHT NOT AVBL
64 E VA BEACH    0750   42 58  330/ 16/ 19 1019.2    6/ 7
DUCK             0736   35 51  300/ 13/ 17 1019.5
2 E DUCK         0800      54                N/A     3/ 5
OREGON INLET     0736   38 47  310/  8/ 11 1020.2
13E OREGON INLT  0748      62                N/A     5/ 6   3/ 6
HATTERAS CG      0736   42 54  330/ 18/ 22 1020.0
DIAMOND BUOY     0800   45 73  330/ 19/ 25 1020.2
CAPE LOOKOUT     0800          330/ 15/ 17 1021.4
BEAUFORT LAB     0736   39 50  340/  5/  8 1020.8
30 SE NEW RVR IN 0708   47 64   10/ 14/ 19 1020.8
30 SE NEW RVR IN 0800      64                N/A     5/ 7
27 SE WRIGHTSVLE 0708   48 64  350/ 16/ 23 1020.5
5 SE WRIGHTSVLE  0708   45 56  350/ 12/ 17 1020.3
225 S CAPE HAT   0750   70 74  290/ 25/ 29 1017.1   11/ 8
41 SE CHARLESTON 0800   55 73  340/ 16/ 21 1020.9

$$




USA.gov is the U.S. government's official web portal to all federal, state and local government web resources and services.